User: anonymous   Login
Location: Unspecified
(0.0000°N, 0.0000°E)
Time: 21:50:20
(UTC+00:00)
Language:

STARLINK-30364 - Orbit

View from above orbital plane
View from above orbital plane
View from above satellite
View from above satellite

Ground track
Ground track

The orbit is defined by the following mean orbital elements,

1 57741U          26145.21965381 +.00000000 +00000-0 +40477-4 0 00006
2 57741  43.0019 100.0040 0001234 268.5699  91.5011 15.27581497    09
Epoch (UTC): 25 May 2026 05:16:18
Eccentricity: 0.0001234
inclination: 43.0019°
perigee height: 482 km
apogee height: 484 km
right ascension of ascending node: 100.0040°
argument of perigee: 268.5699°
revolutions per day: 15.27581497
mean anomaly at epoch: 91.5011°

The dashed part of the orbit path shows where the satellite is in the earth's shadow,  

DLR